This is the latest recevied weather packets stored in our database for station/object IU3NMQ-10. If no packets are shown the sender has not sent any weather packets the latest 10 day(s).
| Time | Temp. | Humidity | Pressure | Rain* | Wind** | Luminosity | Snow |
|---|---|---|---|---|---|---|---|
| 1777491576 | 16.11° C | 68% | 1016.8 hPa | - | - | - | - |
| 1777490676 | 16.11° C | 68% | 1016.6 hPa | - | - | - | - |
| 1777489776 | 16.11° C | 68% | 1016.4 hPa | - | - | - | - |
| 1777488876 | 16.11° C | 69% | 1016.1 hPa | - | - | - | - |
| 1777487976 | 16.67° C | 68% | 1016 hPa | - | - | - | - |
| 1777487076 | 16.67° C | 67% | 1015.8 hPa | - | - | - | - |
| 1777486176 | 17.22° C | 69% | 1015.7 hPa | - | - | - | - |
| 1777485276 | 17.22° C | 69% | 1015.5 hPa | - | - | - | - |
| 1777484375 | 17.22° C | 70% | 1015.3 hPa | - | - | - | - |
| 1777483475 | 17.22° C | 71% | 1015 hPa | - | - | - | - |
| 1777482575 | 17.22° C | 69% | 1014.9 hPa | - | - | - | - |
| 1777481675 | 17.78° C | 69% | 1014.9 hPa | - | - | - | - |
| 1777480775 | 17.78° C | 67% | 1015 hPa | - | - | - | - |
| 1777479875 | 18.33° C | 65% | 1015 hPa | - | - | - | - |
| 1777478975 | 17.78° C | 66% | 1015 hPa | - | - | - | - |
| 1777478075 | 17.78° C | 66% | 1015 hPa | - | - | - | - |
| 1777477174 | 18.33° C | 67% | 1015 hPa | - | - | - | - |
| 1777476274 | 18.33° C | 68% | 1015 hPa | - | - | - | - |
| 1777475374 | 18.33° C | 67% | 1015 hPa | - | - | - | - |
| 1777474474 | 18.33° C | 68% | 1014.9 hPa | - | - | - | - |
| 1777473574 | 18.33° C | 68% | 1014.9 hPa | - | - | - | - |
| 1777472674 | 18.89° C | 67% | 1015.1 hPa | - | - | - | - |
| 1777471774 | 19.44° C | 64% | 1015 hPa | - | - | - | - |
| 1777470873 | 20° C | 61% | 1014.9 hPa | - | - | - | - |
| 1777469973 | 20.56° C | 60% | 1014.8 hPa | - | - | - | - |
* Rain since midnight (hover to see other rain measurements)
** Current wind speed in m/s (hover to see current wind gust speed)